owner,sensor,date,latitude,longitude,vertical_datum,wind_speed,wind_to_direction,wind_speed_of_gust,qcFlag 
TCOON,ioos:station:TCOON:524:1,2013-11-01T00:00:00Z,29.8672,-93.9310,0.0,2.0,161.0,3.5,'11111222,11111222,11111222' 
TCOON,ioos:station:TCOON:524:1,2013-11-01T00:06:00Z,29.8672,-93.9310,0.0,2.0,170.0,3.2,'11111222,11111222,11111222' 
TCOON,ioos:station:TCOON:524:1,2013-11-01T00:12:00Z,29.8672,-93.9310,0.0,2.4,157.0,3.7,'11111222,11111222,11111222' 
TCOON,ioos:station:TCOON:524:1,2013-11-01T00:18:00Z,29.8672,-93.9310,0.0,2.3,160.0,3.4,'11111222,11111222,11111222' 
TCOON,ioos:station:TCOON:524:1,2013-11-01T00:24:00Z,29.8672,-93.9310,0.0,1.7,158.0,2.8,'11111222,11111222,11111222' 
TCOON,ioos:station:TCOON:524:1,2013-11-01T00:30:00Z,29.8672,-93.9310,0.0,2.7,157.0,4.3,'11111222,11111222,11111222' 
TCOON,ioos:station:TCOON:524:1,2013-11-01T00:36:00Z,29.8672,-93.9310,0.0,2.1,160.0,3.6,'1111122,1111122,1111122' 
TCOON,ioos:station:TCOON:524:1,2013-11-01T00:42:00Z,29.8672,-93.9310,0.0,1.7,162.0,3.5,'11111222,11111222,11111222' 
TCOON,ioos:station:TCOON:524:1,2013-11-01T00:48:00Z,29.8672,-93.9310,0.0,2.3,165.0,3.5,'11111222,11111222,11111222' 
TCOON,ioos:station:TCOON:524:1,2013-11-01T00:54:00Z,29.8672,-93.9310,0.0,2.1,150.0,3.1,'1111122,1111122,1111122' 
TCOON,ioos:station:TCOON:524:1,2013-11-01T01:00:00Z,29.8672,-93.9310,0.0,2.3,146.0,3.5,'11111222,11111222,11111222' 
TCOON,ioos:station:TCOON:524:1,2013-11-01T01:06:00Z,29.8672,-93.9310,0.0,1.8,150.0,3.5,'11111222,11111222,11111222' 
TCOON,ioos:station:TCOON:524:1,2013-11-01T01:12:00Z,29.8672,-93.9310,0.0,1.4,155.0,2.0,'11111222,11111222,11111222' 
TCOON,ioos:station:TCOON:524:1,2013-11-01T01:18:00Z,29.8672,-93.9310,0.0,1.2,150.0,2.0,'11111222,11111222,11111222' 
TCOON,ioos:station:TCOON:524:1,2013-11-01T01:24:00Z,29.8672,-93.9310,0.0,1.1,158.0,2.0,'11111222,11111222,11111222' 
TCOON,ioos:station:TCOON:524:1,2013-11-01T01:30:00Z,29.8672,-93.9310,0.0,1.2,169.0,2.3,'11111222,11111222,11111222' 
TCOON,ioos:station:TCOON:524:1,2013-11-01T01:36:00Z,29.8672,-93.9310,0.0,1.0,167.0,1.6,'11111222,11111222,11111222' 
TCOON,ioos:station:TCOON:524:1,2013-11-01T01:42:00Z,29.8672,-93.9310,0.0,0.9,175.0,1.3,'11111222,11111222,11111222' 
TCOON,ioos:station:TCOON:524:1,2013-11-01T01:48:00Z,29.8672,-93.9310,0.0,0.5,170.0,1.5,'1111122,1111122,1111122' 
TCOON,ioos:station:TCOON:524:1,2013-11-01T01:54:00Z,29.8672,-93.9310,0.0,1.2,164.0,1.6,'11111222,11111222,11111222' 
TCOON,ioos:station:TCOON:524:1,2013-11-01T02:00:00Z,29.8672,-93.9310,0.0,0.4,156.0,1.8,'11111222,11111222,11111222' 
TCOON,ioos:station:TCOON:524:1,2013-11-01T02:06:00Z,29.8672,-93.9310,0.0,0.7,165.0,1.4,'11111222,11111222,11111222' 
TCOON,ioos:station:TCOON:524:1,2013-11-01T02:12:00Z,29.8672,-93.9310,0.0,0.7,151.0,1.3,'11111222,11111222,11111222' 
TCOON,ioos:station:TCOON:524:1,2013-11-01T02:18:00Z,29.8672,-93.9310,0.0,0.4,161.0,0.9,'11111222,11111222,11111222' 
TCOON,ioos:station:TCOON:524:1,2013-11-01T02:24:00Z,29.8672,-93.9310,0.0,0.7,142.0,1.4,'11111222,11111222,11111222' 
TCOON,ioos:station:TCOON:524:1,2013-11-01T02:30:00Z,29.8672,-93.9310,0.0,0.5,179.0,0.8,'11111222,11111222,11111222' 
TCOON,ioos:station:TCOON:524:1,2013-11-01T02:36:00Z,29.8672,-93.9310,0.0,1.0,230.0,1.0,'1111122,1111122,1111122' 
TCOON,ioos:station:TCOON:524:1,2013-11-01T02:42:00Z,29.8672,-93.9310,0.0,0.8,209.0,1.1,'11111222,11111222,11111222' 
TCOON,ioos:station:TCOON:524:1,2013-11-01T02:48:00Z,29.8672,-93.9310,0.0,0.8,210.0,1.1,'11111222,11111222,11111222' 
TCOON,ioos:station:TCOON:524:1,2013-11-01T02:54:00Z,29.8672,-93.9310,0.0,1.1,208.0,1.3,'11111222,11111222,11111222' 
TCOON,ioos:station:TCOON:524:1,2013-11-01T03:00:00Z,29.8672,-93.9310,0.0,1.1,199.0,1.3,'11111222,11111222,11111222' 
TCOON,ioos:station:TCOON:524:1,2013-11-01T03:06:00Z,29.8672,-93.9310,0.0,0.9,201.0,1.1,'11111222,11111222,11111222' 
TCOON,ioos:station:TCOON:524:1,2013-11-01T03:12:00Z,29.8672,-93.9310,0.0,0.6,220.0,1.0,'11111222,11111222,11111222' 
TCOON,ioos:station:TCOON:524:1,2013-11-01T03:18:00Z,29.8672,-93.9310,0.0,0.1,219.0,0.7,'11111222,11111222,11111222' 
TCOON,ioos:station:TCOON:524:1,2013-11-01T03:24:00Z,29.8672,-93.9310,0.0,0.4,217.0,0.6,'11111222,11111222,11111222' 
TCOON,ioos:station:TCOON:524:1,2013-11-01T03:30:00Z,29.8672,-93.9310,0.0,0.6,295.0,0.8,'11111222,11111222,11111222' 
TCOON,ioos:station:TCOON:524:1,2013-11-01T03:36:00Z,29.8672,-93.9310,0.0,1.4,292.0,1.6,'11111222,11111222,11111222' 
TCOON,ioos:station:TCOON:524:1,2013-11-01T03:42:00Z,29.8672,-93.9310,0.0,1.2,298.0,1.7,'11111222,11111222,11111222' 
TCOON,ioos:station:TCOON:524:1,2013-11-01T03:48:00Z,29.8672,-93.9310,0.0,0.0,-9999.0,1.5,'1114422,1111122,1111122' 
TCOON,ioos:station:TCOON:524:1,2013-11-01T03:54:00Z,29.8672,-93.9310,0.0,0.4,298.0,1.1,'11111222,11111222,11111222' 
TCOON,ioos:station:TCOON:524:1,2013-11-01T04:00:00Z,29.8672,-93.9310,0.0,0.3,332.0,0.6,'11111222,11111222,11111222' 
TCOON,ioos:station:TCOON:524:1,2013-11-01T04:06:00Z,29.8672,-93.9310,0.0,0.5,291.0,0.8,'11111222,11111222,11111222' 
TCOON,ioos:station:TCOON:524:1,2013-11-01T04:12:00Z,29.8672,-93.9310,0.0,0.5,211.0,1.1,'11111222,11111222,11111222' 
TCOON,ioos:station:TCOON:524:1,2013-11-01T04:18:00Z,29.8672,-93.9310,0.0,1.0,242.0,1.6,'11111222,11111222,11111222' 
TCOON,ioos:station:TCOON:524:1,2013-11-01T04:24:00Z,29.8672,-93.9310,0.0,1.0,250.0,1.5,'1111122,1111122,1111122' 
TCOON,ioos:station:TCOON:524:1,2013-11-01T04:30:00Z,29.8672,-93.9310,0.0,0.0,204.0,0.9,'11111222,11111222,11111222' 
TCOON,ioos:station:TCOON:524:1,2013-11-01T04:36:00Z,29.8672,-93.9310,0.0,0.2,319.0,1.0,'11111222,11111222,11111222' 
TCOON,ioos:station:TCOON:524:1,2013-11-01T04:42:00Z,29.8672,-93.9310,0.0,0.4,211.0,0.7,'11111222,11111222,11111222' 
TCOON,ioos:station:TCOON:524:1,2013-11-01T04:48:00Z,29.8672,-93.9310,0.0,0.6,220.0,1.1,'11111222,11111222,11111222' 
TCOON,ioos:station:TCOON:524:1,2013-11-01T04:54:00Z,29.8672,-93.9310,0.0,0.2,284.0,0.7,'11111222,11111222,11111222' 
TCOON,ioos:station:TCOON:524:1,2013-11-01T05:00:00Z,29.8672,-93.9310,0.0,0.2,256.0,0.5,'11111222,11111222,11111222' 
TCOON,ioos:station:TCOON:524:1,2013-11-01T05:06:00Z,29.8672,-93.9310,0.0,1.2,281.0,1.3,'11111222,11111222,11111222' 
TCOON,ioos:station:TCOON:524:1,2013-11-01T05:12:00Z,29.8672,-93.9310,0.0,0.8,284.0,1.5,'11111222,11111222,11111222' 
TCOON,ioos:station:TCOON:524:1,2013-11-01T05:18:00Z,29.8672,-93.9310,0.0,1.2,294.0,1.9,'11111222,11111222,11111222' 
TCOON,ioos:station:TCOON:524:1,2013-11-01T05:24:00Z,29.8672,-93.9310,0.0,0.9,297.0,1.3,'11111222,11111222,11111222' 
TCOON,ioos:station:TCOON:524:1,2013-11-01T05:30:00Z,29.8672,-93.9310,0.0,1.1,275.0,1.5,'11111222,11111222,11111222' 
TCOON,ioos:station:TCOON:524:1,2013-11-01T05:36:00Z,29.8672,-93.9310,0.0,1.0,310.0,1.5,'1111122,1111122,1111122' 
TCOON,ioos:station:TCOON:524:1,2013-11-01T05:42:00Z,29.8672,-93.9310,0.0,0.4,22.0,1.9,'11111222,11111222,11111222' 
TCOON,ioos:station:TCOON:524:1,2013-11-01T05:48:00Z,29.8672,-93.9310,0.0,0.0,-9999.0,0.5,'1114422,1111122,1111122' 
TCOON,ioos:station:TCOON:524:1,2013-11-01T05:54:00Z,29.8672,-93.9310,0.0,0.0,278.0,0.1,'11111222,11111222,11111222' 
TCOON,ioos:station:TCOON:524:1,2013-11-01T06:00:00Z,29.8672,-93.9310,0.0,0.1,349.0,0.3,'11111222,11111222,11111222' 
TCOON,ioos:station:TCOON:524:1,2013-11-01T06:06:00Z,29.8672,-93.9310,0.0,0.7,351.0,1.0,'11111222,11111222,11111222' 
TCOON,ioos:station:TCOON:524:1,2013-11-01T06:12:00Z,29.8672,-93.9310,0.0,0.2,182.0,0.9,'11111222,11111222,11111222' 
TCOON,ioos:station:TCOON:524:1,2013-11-01T06:18:00Z,29.8672,-93.9310,0.0,0.5,136.0,0.8,'11111222,11111222,11111222' 
TCOON,ioos:station:TCOON:524:1,2013-11-01T06:24:00Z,29.8672,-93.9310,0.0,1.0,118.0,1.1,'11111222,11111222,11111222' 
TCOON,ioos:station:TCOON:524:1,2013-11-01T06:30:00Z,29.8672,-93.9310,0.0,0.1,189.0,1.0,'11111222,11111222,11111222' 
TCOON,ioos:station:TCOON:524:1,2013-11-01T06:36:00Z,29.8672,-93.9310,0.0,0.0,271.0,0.2,'11111222,11111222,11111222' 
TCOON,ioos:station:TCOON:524:1,2013-11-01T06:42:00Z,29.8672,-93.9310,0.0,0.0,-9999.0,0.5,'1114422,1111122,1111122' 
TCOON,ioos:station:TCOON:524:1,2013-11-01T06:48:00Z,29.8672,-93.9310,0.0,0.3,359.0,0.9,'11111222,11111222,11111222' 
TCOON,ioos:station:TCOON:524:1,2013-11-01T06:54:00Z,29.8672,-93.9310,0.0,0.7,308.0,0.9,'11111222,11111222,11111222' 
TCOON,ioos:station:TCOON:524:1,2013-11-01T07:00:00Z,29.8672,-93.9310,0.0,1.1,324.0,1.6,'11111222,11111222,11111222' 
TCOON,ioos:station:TCOON:524:1,2013-11-01T07:06:00Z,29.8672,-93.9310,0.0,0.7,328.0,1.3,'11111222,11111222,11111222' 
TCOON,ioos:station:TCOON:524:1,2013-11-01T07:12:00Z,29.8672,-93.9310,0.0,0.0,258.0,0.8,'11111222,11111222,11111222' 
TCOON,ioos:station:TCOON:524:1,2013-11-01T07:18:00Z,29.8672,-93.9310,0.0,0.3,291.0,0.8,'11111222,11111222,11111222' 
TCOON,ioos:station:TCOON:524:1,2013-11-01T07:24:00Z,29.8672,-93.9310,0.0,0.0,231.0,0.1,'11111222,11111222,11111222' 
TCOON,ioos:station:TCOON:524:1,2013-11-01T07:30:00Z,29.8672,-93.9310,0.0,0.0,243.0,0.6,'11111222,11111222,11111222' 
TCOON,ioos:station:TCOON:524:1,2013-11-01T07:36:00Z,29.8672,-93.9310,0.0,0.0,201.0,0.2,'11111222,11111222,11111222' 
TCOON,ioos:station:TCOON:524:1,2013-11-01T07:42:00Z,29.8672,-93.9310,0.0,0.6,173.0,0.9,'11111222,11111222,11111222' 
TCOON,ioos:station:TCOON:524:1,2013-11-01T07:48:00Z,29.8672,-93.9310,0.0,0.0,-9999.0,0.5,'1114422,1111122,1111122' 
TCOON,ioos:station:TCOON:524:1,2013-11-01T07:54:00Z,29.8672,-93.9310,0.0,0.0,294.0,0.3,'11111222,11111222,11111222' 
TCOON,ioos:station:TCOON:524:1,2013-11-01T08:00:00Z,29.8672,-93.9310,0.0,0.1,222.0,0.4,'11111222,11111222,11111222' 
TCOON,ioos:station:TCOON:524:1,2013-11-01T08:06:00Z,29.8672,-93.9310,0.0,0.0,272.0,0.6,'11111222,11111222,11111222' 
TCOON,ioos:station:TCOON:524:1,2013-11-01T08:12:00Z,29.8672,-93.9310,0.0,0.4,283.0,1.0,'11111222,11111222,11111222' 
TCOON,ioos:station:TCOON:524:1,2013-11-01T08:18:00Z,29.8672,-93.9310,0.0,1.4,314.0,1.6,'11111222,11111222,11111222' 
TCOON,ioos:station:TCOON:524:1,2013-11-01T08:24:00Z,29.8672,-93.9310,0.0,2.1,343.0,2.9,'11111222,11111222,11111222' 
TCOON,ioos:station:TCOON:524:1,2013-11-01T08:30:00Z,29.8672,-93.9310,0.0,2.6,305.0,5.0,'11111222,11111222,11111222' 
TCOON,ioos:station:TCOON:524:1,2013-11-01T08:36:00Z,29.8672,-93.9310,0.0,2.6,330.0,3.6,'1111122,1111122,1111122' 
TCOON,ioos:station:TCOON:524:1,2013-11-01T08:42:00Z,29.8672,-93.9310,0.0,2.2,298.0,3.3,'11111222,11111222,11111222' 
TCOON,ioos:station:TCOON:524:1,2013-11-01T08:48:00Z,29.8672,-93.9310,0.0,2.6,340.0,3.6,'1111122,1111122,1111122' 
TCOON,ioos:station:TCOON:524:1,2013-11-01T08:54:00Z,29.8672,-93.9310,0.0,3.4,335.0,4.8,'11111222,11111222,11111222' 
TCOON,ioos:station:TCOON:524:1,2013-11-01T09:00:00Z,29.8672,-93.9310,0.0,4.2,336.0,5.2,'11111222,11111222,11111222' 
TCOON,ioos:station:TCOON:524:1,2013-11-01T09:06:00Z,29.8672,-93.9310,0.0,3.4,334.0,4.6,'11111222,11111222,11111222' 
TCOON,ioos:station:TCOON:524:1,2013-11-01T09:12:00Z,29.8672,-93.9310,0.0,3.1,335.0,3.6,'11111222,11111222,11111222' 
TCOON,ioos:station:TCOON:524:1,2013-11-01T09:18:00Z,29.8672,-93.9310,0.0,2.4,335.0,3.7,'11111222,11111222,11111222' 
TCOON,ioos:station:TCOON:524:1,2013-11-01T09:24:00Z,29.8672,-93.9310,0.0,3.1,333.0,3.8,'11111222,11111222,11111222' 
TCOON,ioos:station:TCOON:524:1,2013-11-01T09:30:00Z,29.8672,-93.9310,0.0,2.8,323.0,4.0,'11111222,11111222,11111222' 
TCOON,ioos:station:TCOON:524:1,2013-11-01T09:36:00Z,29.8672,-93.9310,0.0,3.1,339.0,3.7,'11111222,11111222,11111222' 
TCOON,ioos:station:TCOON:524:1,2013-11-01T09:42:00Z,29.8672,-93.9310,0.0,3.3,348.0,4.8,'11111222,11111222,11111222' 
TCOON,ioos:station:TCOON:524:1,2013-11-01T09:48:00Z,29.8672,-93.9310,0.0,3.3,350.0,4.1,'11111222,11111222,11111222' 
TCOON,ioos:station:TCOON:524:1,2013-11-01T09:54:00Z,29.8672,-93.9310,0.0,2.7,359.0,3.6,'11111222,11111222,11111222' 
TCOON,ioos:station:TCOON:524:1,2013-11-01T10:00:00Z,29.8672,-93.9310,0.0,2.7,356.0,3.5,'11111222,11111222,11111222' 
TCOON,ioos:station:TCOON:524:1,2013-11-01T10:06:00Z,29.8672,-93.9310,0.0,2.5,3.0,3.4,'11111222,11111222,11111222' 
TCOON,ioos:station:TCOON:524:1,2013-11-01T10:12:00Z,29.8672,-93.9310,0.0,2.4,2.0,3.1,'11111222,11111222,11111222' 
TCOON,ioos:station:TCOON:524:1,2013-11-01T10:18:00Z,29.8672,-93.9310,0.0,1.2,22.0,2.5,'11111222,11111222,11111222' 
TCOON,ioos:station:TCOON:524:1,2013-11-01T10:24:00Z,29.8672,-93.9310,0.0,1.9,6.0,2.5,'11111222,11111222,11111222' 
TCOON,ioos:station:TCOON:524:1,2013-11-01T10:30:00Z,29.8672,-93.9310,0.0,2.1,9.0,3.0,'11111222,11111222,11111222' 
TCOON,ioos:station:TCOON:524:1,2013-11-01T10:36:00Z,29.8672,-93.9310,0.0,2.1,10.0,3.1,'1111122,1111122,1111122' 
TCOON,ioos:station:TCOON:524:1,2013-11-01T10:42:00Z,29.8672,-93.9310,0.0,0.8,16.0,2.6,'11111222,11111222,11111222' 
TCOON,ioos:station:TCOON:524:1,2013-11-01T10:48:00Z,29.8672,-93.9310,0.0,1.1,54.0,2.2,'11111222,11111222,11111222' 
TCOON,ioos:station:TCOON:524:1,2013-11-01T10:54:00Z,29.8672,-93.9310,0.0,1.0,70.0,2.1,'1111122,1111122,1111122' 
TCOON,ioos:station:TCOON:524:1,2013-11-01T11:00:00Z,29.8672,-93.9310,0.0,1.3,47.0,2.5,'11111222,11111222,11111222' 
TCOON,ioos:station:TCOON:524:1,2013-11-01T11:06:00Z,29.8672,-93.9310,0.0,0.8,42.0,1.8,'11111222,11111222,11111222' 
TCOON,ioos:station:TCOON:524:1,2013-11-01T11:12:00Z,29.8672,-93.9310,0.0,0.8,51.0,1.5,'11111222,11111222,11111222' 
TCOON,ioos:station:TCOON:524:1,2013-11-01T11:18:00Z,29.8672,-93.9310,0.0,0.7,48.0,1.6,'11111222,11111222,11111222' 
TCOON,ioos:station:TCOON:524:1,2013-11-01T11:24:00Z,29.8672,-93.9310,0.0,0.6,56.0,1.1,'11111222,11111222,11111222' 
TCOON,ioos:station:TCOON:524:1,2013-11-01T11:30:00Z,29.8672,-93.9310,0.0,0.7,34.0,1.7,'11111222,11111222,11111222' 
TCOON,ioos:station:TCOON:524:1,2013-11-01T11:36:00Z,29.8672,-93.9310,0.0,0.6,42.0,1.1,'11111222,11111222,11111222' 
TCOON,ioos:station:TCOON:524:1,2013-11-01T11:42:00Z,29.8672,-93.9310,0.0,0.6,51.0,1.4,'11111222,11111222,11111222' 
TCOON,ioos:station:TCOON:524:1,2013-11-01T11:48:00Z,29.8672,-93.9310,0.0,0.5,40.0,1.5,'1111122,1111122,1111122' 
TCOON,ioos:station:TCOON:524:1,2013-11-01T11:54:00Z,29.8672,-93.9310,0.0,0.8,32.0,1.4,'11111222,11111222,11111222' 
TCOON,ioos:station:TCOON:524:1,2013-11-01T12:00:00Z,29.8672,-93.9310,0.0,0.5,33.0,1.6,'11111222,11111222,11111222' 
TCOON,ioos:station:TCOON:524:1,2013-11-01T12:06:00Z,29.8672,-93.9310,0.0,0.6,49.0,1.5,'11111222,11111222,11111222' 
TCOON,ioos:station:TCOON:524:1,2013-11-01T12:12:00Z,29.8672,-93.9310,0.0,0.8,48.0,1.3,'11111222,11111222,11111222' 
TCOON,ioos:station:TCOON:524:1,2013-11-01T12:18:00Z,29.8672,-93.9310,0.0,0.5,46.0,1.5,'11111222,11111222,11111222' 
TCOON,ioos:station:TCOON:524:1,2013-11-01T12:24:00Z,29.8672,-93.9310,0.0,0.0,-9999.0,1.5,'1114422,1111122,1111122' 
TCOON,ioos:station:TCOON:524:1,2013-11-01T12:30:00Z,29.8672,-93.9310,0.0,0.9,59.0,2.3,'11111222,11111222,11111222' 
TCOON,ioos:station:TCOON:524:1,2013-11-01T12:36:00Z,29.8672,-93.9310,0.0,0.8,55.0,2.1,'11111222,11111222,11111222' 
TCOON,ioos:station:TCOON:524:1,2013-11-01T12:42:00Z,29.8672,-93.9310,0.0,0.8,50.0,1.4,'11111222,11111222,11111222' 
TCOON,ioos:station:TCOON:524:1,2013-11-01T12:48:00Z,29.8672,-93.9310,0.0,0.5,40.0,1.0,'1111122,1111122,1111122' 
TCOON,ioos:station:TCOON:524:1,2013-11-01T12:54:00Z,29.8672,-93.9310,0.0,0.5,38.0,1.1,'11111222,11111222,11111222' 
TCOON,ioos:station:TCOON:524:1,2013-11-01T13:00:00Z,29.8672,-93.9310,0.0,0.8,32.0,1.3,'11111222,11111222,11111222' 
TCOON,ioos:station:TCOON:524:1,2013-11-01T13:06:00Z,29.8672,-93.9310,0.0,0.7,42.0,1.3,'11111222,11111222,11111222' 
TCOON,ioos:station:TCOON:524:1,2013-11-01T13:12:00Z,29.8672,-93.9310,0.0,0.6,35.0,1.4,'11111222,11111222,11111222' 
TCOON,ioos:station:TCOON:524:1,2013-11-01T13:18:00Z,29.8672,-93.9310,0.0,0.5,35.0,1.4,'11111222,11111222,11111222' 
TCOON,ioos:station:TCOON:524:1,2013-11-01T13:24:00Z,29.8672,-93.9310,0.0,0.3,96.0,1.6,'11111222,11111222,11111222' 
TCOON,ioos:station:TCOON:524:1,2013-11-01T13:30:00Z,29.8672,-93.9310,0.0,0.3,69.0,1.0,'11111222,11111222,11111222' 
TCOON,ioos:station:TCOON:524:1,2013-11-01T13:36:00Z,29.8672,-93.9310,0.0,1.0,30.0,1.5,'1111122,1111122,1111122' 
TCOON,ioos:station:TCOON:524:1,2013-11-01T13:42:00Z,29.8672,-93.9310,0.0,1.3,24.0,2.6,'11111222,11111222,11111222' 
TCOON,ioos:station:TCOON:524:1,2013-11-01T13:48:00Z,29.8672,-93.9310,0.0,1.0,40.0,1.5,'1111122,1111122,1111122' 
TCOON,ioos:station:TCOON:524:1,2013-11-01T13:54:00Z,29.8672,-93.9310,0.0,0.8,42.0,1.4,'11111222,11111222,11111222' 
TCOON,ioos:station:TCOON:524:1,2013-11-01T14:00:00Z,29.8672,-93.9310,0.0,0.8,35.0,1.7,'11111222,11111222,11111222' 
TCOON,ioos:station:TCOON:524:1,2013-11-01T14:06:00Z,29.8672,-93.9310,0.0,0.9,35.0,1.9,'11111222,11111222,11111222' 
TCOON,ioos:station:TCOON:524:1,2013-11-01T14:12:00Z,29.8672,-93.9310,0.0,1.2,52.0,1.9,'11111222,11111222,11111222' 
TCOON,ioos:station:TCOON:524:1,2013-11-01T14:18:00Z,29.8672,-93.9310,0.0,0.9,59.0,2.5,'11111222,11111222,11111222' 
TCOON,ioos:station:TCOON:524:1,2013-11-01T14:24:00Z,29.8672,-93.9310,0.0,2.1,72.0,3.3,'11111222,11111222,11111222' 
TCOON,ioos:station:TCOON:524:1,2013-11-01T14:30:00Z,29.8672,-93.9310,0.0,1.6,64.0,3.0,'11111222,11111222,11111222' 
TCOON,ioos:station:TCOON:524:1,2013-11-01T14:36:00Z,29.8672,-93.9310,0.0,2.1,70.0,3.6,'1111122,1111122,1111122' 
TCOON,ioos:station:TCOON:524:1,2013-11-01T14:42:00Z,29.8672,-93.9310,0.0,1.4,50.0,3.4,'11111222,11111222,11111222' 
TCOON,ioos:station:TCOON:524:1,2013-11-01T14:48:00Z,29.8672,-93.9310,0.0,1.6,74.0,3.1,'11111222,11111222,11111222' 
TCOON,ioos:station:TCOON:524:1,2013-11-01T14:54:00Z,29.8672,-93.9310,0.0,3.6,80.0,4.6,'1111122,1111122,1111122' 
TCOON,ioos:station:TCOON:524:1,2013-11-01T15:00:00Z,29.8672,-93.9310,0.0,2.7,68.0,4.6,'11111222,11111222,11111222' 
TCOON,ioos:station:TCOON:524:1,2013-11-01T15:06:00Z,29.8672,-93.9310,0.0,2.8,79.0,4.5,'11111222,11111222,11111222' 
TCOON,ioos:station:TCOON:524:1,2013-11-01T15:12:00Z,29.8672,-93.9310,0.0,2.6,68.0,4.1,'11111222,11111222,11111222' 
TCOON,ioos:station:TCOON:524:1,2013-11-01T15:18:00Z,29.8672,-93.9310,0.0,2.8,76.0,4.1,'11111222,11111222,11111222' 
TCOON,ioos:station:TCOON:524:1,2013-11-01T15:24:00Z,29.8672,-93.9310,0.0,3.2,79.0,4.2,'11111222,11111222,11111222' 
TCOON,ioos:station:TCOON:524:1,2013-11-01T15:30:00Z,29.8672,-93.9310,0.0,3.1,86.0,4.1,'11111222,11111222,11111222' 
TCOON,ioos:station:TCOON:524:1,2013-11-01T15:36:00Z,29.8672,-93.9310,0.0,3.0,79.0,4.0,'11111222,11111222,11111222' 
TCOON,ioos:station:TCOON:524:1,2013-11-01T15:42:00Z,29.8672,-93.9310,0.0,2.4,82.0,3.5,'11111222,11111222,11111222' 
TCOON,ioos:station:TCOON:524:1,2013-11-01T15:48:00Z,29.8672,-93.9310,0.0,2.6,70.0,3.6,'1111122,1111122,1111122' 
TCOON,ioos:station:TCOON:524:1,2013-11-01T15:54:00Z,29.8672,-93.9310,0.0,2.4,85.0,3.3,'11111222,11111222,11111222' 
TCOON,ioos:station:TCOON:524:1,2013-11-01T16:00:00Z,29.8672,-93.9310,0.0,1.9,92.0,3.2,'11111222,11111222,11111222' 
TCOON,ioos:station:TCOON:524:1,2013-11-01T16:06:00Z,29.8672,-93.9310,0.0,2.1,80.0,3.3,'11111222,11111222,11111222' 
TCOON,ioos:station:TCOON:524:1,2013-11-01T16:12:00Z,29.8672,-93.9310,0.0,2.5,95.0,3.7,'11111222,11111222,11111222' 
TCOON,ioos:station:TCOON:524:1,2013-11-01T16:18:00Z,29.8672,-93.9310,0.0,2.6,93.0,3.5,'11111222,11111222,11111222' 
TCOON,ioos:station:TCOON:524:1,2013-11-01T16:24:00Z,29.8672,-93.9310,0.0,2.8,93.0,3.8,'11111222,11111222,11111222' 
TCOON,ioos:station:TCOON:524:1,2013-11-01T16:30:00Z,29.8672,-93.9310,0.0,3.1,100.0,4.1,'11111222,11111222,11111222' 
TCOON,ioos:station:TCOON:524:1,2013-11-01T16:36:00Z,29.8672,-93.9310,0.0,2.8,108.0,3.5,'11111222,11111222,11111222' 
TCOON,ioos:station:TCOON:524:1,2013-11-01T16:42:00Z,29.8672,-93.9310,0.0,2.1,104.0,3.6,'11111222,11111222,11111222' 
TCOON,ioos:station:TCOON:524:1,2013-11-01T16:48:00Z,29.8672,-93.9310,0.0,2.6,70.0,3.1,'1111122,1111122,1111122' 
TCOON,ioos:station:TCOON:524:1,2013-11-01T16:54:00Z,29.8672,-93.9310,0.0,2.4,77.0,3.2,'11111222,11111222,11111222' 
TCOON,ioos:station:TCOON:524:1,2013-11-01T17:00:00Z,29.8672,-93.9310,0.0,2.3,78.0,3.3,'11111222,11111222,11111222' 
TCOON,ioos:station:TCOON:524:1,2013-11-01T17:06:00Z,29.8672,-93.9310,0.0,2.3,91.0,3.7,'11111222,11111222,11111222' 
TCOON,ioos:station:TCOON:524:1,2013-11-01T17:12:00Z,29.8672,-93.9310,0.0,2.3,106.0,3.2,'11111222,11111222,11111222' 
TCOON,ioos:station:TCOON:524:1,2013-11-01T17:18:00Z,29.8672,-93.9310,0.0,2.3,90.0,3.2,'11111222,11111222,11111222' 
TCOON,ioos:station:TCOON:524:1,2013-11-01T17:24:00Z,29.8672,-93.9310,0.0,2.6,90.0,3.1,'1111122,1111122,1111122' 
TCOON,ioos:station:TCOON:524:1,2013-11-01T17:30:00Z,29.8672,-93.9310,0.0,2.1,86.0,3.3,'11111222,11111222,11111222' 
TCOON,ioos:station:TCOON:524:1,2013-11-01T17:36:00Z,29.8672,-93.9310,0.0,2.3,79.0,3.1,'11111222,11111222,11111222' 
TCOON,ioos:station:TCOON:524:1,2013-11-01T17:42:00Z,29.8672,-93.9310,0.0,2.0,100.0,3.0,'11111222,11111222,11111222' 
TCOON,ioos:station:TCOON:524:1,2013-11-01T17:48:00Z,29.8672,-93.9310,0.0,2.1,90.0,2.6,'1111122,1111122,1111122' 
TCOON,ioos:station:TCOON:524:1,2013-11-01T17:54:00Z,29.8672,-93.9310,0.0,2.4,101.0,3.0,'11111222,11111222,11111222' 
TCOON,ioos:station:TCOON:524:1,2013-11-01T18:00:00Z,29.8672,-93.9310,0.0,2.0,84.0,2.8,'11111222,11111222,11111222' 
TCOON,ioos:station:TCOON:524:1,2013-11-01T18:06:00Z,29.8672,-93.9310,0.0,2.1,101.0,2.9,'11111222,11111222,11111222' 
TCOON,ioos:station:TCOON:524:1,2013-11-01T18:12:00Z,29.8672,-93.9310,0.0,2.2,107.0,3.1,'11111222,11111222,11111222' 
TCOON,ioos:station:TCOON:524:1,2013-11-01T18:18:00Z,29.8672,-93.9310,0.0,2.0,92.0,2.9,'11111222,11111222,11111222' 
TCOON,ioos:station:TCOON:524:1,2013-11-01T18:24:00Z,29.8672,-93.9310,0.0,2.0,88.0,3.1,'11111222,11111222,11111222' 
TCOON,ioos:station:TCOON:524:1,2013-11-01T18:30:00Z,29.8672,-93.9310,0.0,2.0,100.0,2.9,'11111222,11111222,11111222' 
TCOON,ioos:station:TCOON:524:1,2013-11-01T18:36:00Z,29.8672,-93.9310,0.0,2.1,90.0,3.6,'1111122,1111122,1111122' 
TCOON,ioos:station:TCOON:524:1,2013-11-01T18:42:00Z,29.8672,-93.9310,0.0,1.8,97.0,2.9,'11111222,11111222,11111222' 
TCOON,ioos:station:TCOON:524:1,2013-11-01T18:48:00Z,29.8672,-93.9310,0.0,2.1,90.0,2.6,'1111122,1111122,1111122' 
TCOON,ioos:station:TCOON:524:1,2013-11-01T18:54:00Z,29.8672,-93.9310,0.0,1.7,92.0,2.9,'11111222,11111222,11111222' 
TCOON,ioos:station:TCOON:524:1,2013-11-01T19:00:00Z,29.8672,-93.9310,0.0,2.1,108.0,2.7,'11111222,11111222,11111222' 
TCOON,ioos:station:TCOON:524:1,2013-11-01T19:06:00Z,29.8672,-93.9310,0.0,1.7,107.0,2.6,'11111222,11111222,11111222' 
TCOON,ioos:station:TCOON:524:1,2013-11-01T19:12:00Z,29.8672,-93.9310,0.0,1.4,99.0,2.5,'11111222,11111222,11111222' 
TCOON,ioos:station:TCOON:524:1,2013-11-01T19:18:00Z,29.8672,-93.9310,0.0,1.3,108.0,1.9,'11111222,11111222,11111222' 
TCOON,ioos:station:TCOON:524:1,2013-11-01T19:24:00Z,29.8672,-93.9310,0.0,1.8,124.0,2.4,'11111222,11111222,11111222' 
TCOON,ioos:station:TCOON:524:1,2013-11-01T19:30:00Z,29.8672,-93.9310,0.0,1.5,160.0,2.6,'1111122,1111122,1111122' 
TCOON,ioos:station:TCOON:524:1,2013-11-01T19:36:00Z,29.8672,-93.9310,0.0,1.6,138.0,2.3,'11111222,11111222,11111222' 
TCOON,ioos:station:TCOON:524:1,2013-11-01T19:42:00Z,29.8672,-93.9310,0.0,1.5,166.0,2.6,'11111222,11111222,11111222' 
TCOON,ioos:station:TCOON:524:1,2013-11-01T19:48:00Z,29.8672,-93.9310,0.0,1.7,144.0,2.8,'11111222,11111222,11111222' 
TCOON,ioos:station:TCOON:524:1,2013-11-01T19:54:00Z,29.8672,-93.9310,0.0,1.8,164.0,2.7,'11111222,11111222,11111222' 
TCOON,ioos:station:TCOON:524:1,2013-11-01T20:00:00Z,29.8672,-93.9310,0.0,2.2,140.0,2.9,'11111222,11111222,11111222' 
TCOON,ioos:station:TCOON:524:1,2013-11-01T20:06:00Z,29.8672,-93.9310,0.0,1.8,135.0,2.9,'11111222,11111222,11111222' 
TCOON,ioos:station:TCOON:524:1,2013-11-01T20:12:00Z,29.8672,-93.9310,0.0,2.6,139.0,3.6,'11111222,11111222,11111222' 
TCOON,ioos:station:TCOON:524:1,2013-11-01T20:18:00Z,29.8672,-93.9310,0.0,2.4,124.0,3.4,'11111222,11111222,11111222' 
TCOON,ioos:station:TCOON:524:1,2013-11-01T20:24:00Z,29.8672,-93.9310,0.0,2.4,143.0,3.4,'11111222,11111222,11111222' 